Rbgn^[z[y[W
メイン
   新天体発見情報
     Comet P/2020 F4 = 2011 GN5 (PANSTARRS)
投稿するにはまず登録を

スレッド表示 | 新しいものから 前のトピック | 次のトピック | 下へ
投稿者 スレッド
佐藤裕久
投稿日時: 2020-5-5 14:33
モデレータ
登録日: 2005-6-12
居住地: 日本
投稿: 2063
オンライン
Comet P/2020 F4 = 2011 GN5 (PANSTARRS)

この天体は、3月24日UT、Pan-STARRS 1 (F51)により、R. Werykは彗星らしい天体として
通報した。2"のコマとp.a.260°に向かって4"の尾が見える。3月28日、WerykはF51とF52
から多くの発見前の画像をつけたと報告した。また彼はこの天体と2011 GN5を連結した。
NEATサーベイ (644)によって得られた2002年の追加発見前の画像は、K. Sarneczkyによっ
て突き止められた。
小惑星センターのPCCP webpageに公表され、M. Tichy, J. Ticha,と M. Honkova (246:
2020年3月28.9日UT、Klet天文台の1.06-m KLENOT 望遠鏡で、8"の拡散状のコマを明らかに
した)やL. BuzziとA. Aletti (204: 0.84-m f/3.5反射望遠鏡、4月2.0日、30秒露出90枚
スタック、4"のコンパクトなコマあるいはp.a.310°に5"伸びて見えた)らによって彗星状と
観測された。

発見位置は次のとおり、

     2009 UT             R.A. (2000) Decl.       Mag.
     Dec. 24.46830    5 05 23.33   +19 23 44.3   21.8
          24.47794    5 05 22.90   +19 23 45.1   22.1

     2011 UT             R.A. (2000) Decl.       Mag.
     Jan. 11.66905   12 43 55.77   + 5 23 22.4   21.1
          11.67484   12 43 56.05   + 5 23 21.9   20.9
          16.60279   12 47 19.78   + 5 22 41.4   20.3
     Mar. 13.43920   12 49 08.45   + 8 40 35.2   20.5
          16.45348   12 47 29.31   + 8 55 59.3   19.6
          16.46624   12 47 28.87   + 8 56 03.1   20.2
          16.47932   12 47 28.41   + 8 56 07.2   21.1
     Apr.  2.35857   12 37 02.29   +10 08 04.5   20.1
           2.36822   12 37 01.91   +10 08 06.5   20.0
           2.37931   12 37 01.49   +10 08 08.7   21.7
           2.39069   12 37 01.01   +10 08 10.7   20.8
           3.38224   12 36 23.49   +10 11 19.2   20.0
           3.39283   12 36 23.09   +10 11 21.1   21.1

     2018 UT             R.A. (2000) Decl.       Mag.
     Dec. 12.46377    4 58 20.41   +18 16 27.7   21.1
          12.47642    4 58 19.82   +18 16 28.4   20.4
          12.48904    4 58 19.20   +18 16 28.3   20.9
          12.50156    4 58 18.60   +18 16 28.7   21.6
          15.45629    4 56 00.12   +18 18 45.7   19.1
          15.46734    4 55 59.58   +18 18 45.3   19.8
          15.47834    4 55 59.06   +18 18 46.2   20.0
          15.48934    4 55 58.52   +18 18 46.7   20.4
          29.26646    4 45 55.45   +18 32 38.0   21.2

     2019 UT             R.A. (2000) Decl.       Mag.
     Jan.  6.42525    4 41 01.64   +18 43 51.8   20.2
           6.43804    4 41 01.19   +18 43 52.7   20.6
           6.45080    4 41 00.78   +18 43 54.0   21.2
     Dec.  4.61831   11 49 41.00   + 8 41 19.3   20.0
           4.63884   11 49 42.50   + 8 41 13.7   20.8

     2020 UT             R.A. (2000) Decl.       Mag.
     Jan. 22.62440   12 32 49.97   + 7 24 39.1   21.4
          22.63795   12 32 50.33   + 7 24 40.6   21.1
          22.65154   12 32 50.69   + 7 24 41.9   21.9
          22.66502   12 32 51.03   + 7 24 43.6   22.3
          30.56069   12 35 35.68   + 7 43 46.7   22.2
          30.57472   12 35 35.86   + 7 43 48.7   21.4
          30.58927   12 35 36.08   + 7 43 51.7   21.4
     Mar. 24.51820   12 19 38.47   +12 03 46.6   20.7
          24.53112   12 19 37.96   +12 03 49.6   21.3
          24.54403   12 19 37.45   +12 03 52.8   20.5
          24.55688   12 19 36.94   +12 03 55.8   20.9

   2011年のMt Lemmonの観測一覧:

     2011 UT             R.A. (2000) Decl.       Mag.
     Apr.  2.24722   12 37 06.42   +10 07 42.1   19.3
           2.25515   12 37 06.20   +10 07 43.1   19.6
           2.26322   12 37 05.80   +10 07 45.4   19.6
           2.27126   12 37 05.55   +10 07 46.2   19.6
           4.41951   12 35 44.19   +10 14 25.5   20.5
           4.42710   12 35 43.90   +10 14 27.0   20.7
           4.43470   12 35 43.62   +10 14 27.6   20.4
           4.44229   12 35 43.29   +10 14 28.8   20.5


   Sarneczkyが測定した2002年のNEATの観測一覧:

     2002 UT             R.A. (2000) Decl.       Mag.
     Mar. 11.53907   12 54 27.97   + 8 05 48.7   19.9
          12.54068   12 53 57.67   + 8 11 01.9   19.7
     Apr.  1.50119   12 41 57.12   + 9 40 39.4   19.3
           1.51167   12 41 56.80   + 9 40 41.7   20.0
           1.51692   12 41 56.60   + 9 40 42.0   19.9
     May   6.17031   12 25 44.46   + 9 58 03.0   20.4
           6.18072   12 25 44.29   + 9 58 01.7   20.2
           6.20154   12 25 43.98   + 9 57 58.4   20.0


MPCの連結軌道要素と位置推算表は次のとおり、

Orbital elements:
    P/2020 F4                                                                   
Epoch 2001 Nov. 27.0 TT = JDT 2452240.5                                         
T 2001 Nov. 10.56507 TT                                 Spoto                   
q   2.7227641            (2000.0)            P               Q                  
n   0.10976283     Peri.   54.33577     -0.87888496     -0.45383356             
a   4.3201537      Node    98.26224     +0.37545048     -0.84812703             
e   0.3697530      Incl.    8.53990     +0.29427565     -0.27334163             
P   8.98                                                                        
From 94 observations 2002 Apr. 1-2020 Apr. 1, mean residual 0".9.               
     Nongravitational parameters Y1 = +0.03, Y2 = -0.0017, Y3 = -0.0902.        
                                                                                
    P/2020 F4                                                                   
Epoch 2010 Nov. 20.0 TT = JDT 2455520.5                                         
T 2010 Nov. 12.81881 TT                                 Spoto                   
q   2.7415234            (2000.0)            P               Q                  
n   0.10903691     Peri.   54.37298     -0.87889309     -0.45387892             
a   4.3393068      Node    98.22357     +0.37550684     -0.84804468             
e   0.3682117      Incl.    8.52801     +0.29417943     -0.27352173             
P   9.04                                                                        
From 94 observations 2002 Apr. 1-2020 Apr. 1, mean residual 0".9.               
     Nongravitational parameters Y1 = +0.03, Y2 = -0.0017, Y3 = -0.0902.        
                                                                                
    P/2020 F4                                                                   
Epoch 2019 Dec. 23.0 TT = JDT 2458840.5                                         
T 2019 Nov. 30.45657 TT                                 Spoto                   
q   2.7379150            (2000.0)            P               Q                  
n   0.10920421     Peri.   54.52727     -0.87931499     -0.45304128             
a   4.3348737      Node    98.12463     +0.37460789     -0.84834170             
e   0.3683980      Incl.    8.52944     +0.29406475     -0.27398896             
P   9.03                                                                        
From 94 observations 2002 Apr. 1-2020 Apr. 1, mean residual 0".9.               
     Nongravitational parameters Y1 = +0.03, Y2 = -0.0017, Y3 = -0.0902.        
                                                                                
    P/2020 F4                                                                   
Epoch 2020 May 31.0 TT = JDT 2459000.5                                          
T 2019 Nov. 30.44015 TT                                 Spoto                   
q   2.7379370            (2000.0)            P               Q                  
n   0.10924768     Peri.   54.52549     -0.87929828     -0.45307378             
a   4.3337237      Node    98.12430     +0.37463904     -0.84832758             
e   0.3682253      Incl.    8.52942     +0.29407501     -0.27397896             
P   9.02                                                                        
From 94 observations 2002 Apr. 1-2020 Apr. 1, mean residual 0".9.               
     Nongravitational parameters Y1 = +0.03, Y2 = -0.0017, Y3 = -0.0902.        
                                                                                
    P/2020 F4                                                                   
Epoch 2028 Dec. 15.0 TT = JDT 2462120.5                                         
T 2028 Nov. 30.30354 TT                                 Spoto                   
q   2.7254058            (2000.0)            P               Q                  
n   0.10967838     Peri.   54.74484     -0.88040892     -0.45090603             
a   4.3223708      Node    98.04689     +0.37248371     -0.84919506             
e   0.3694651      Incl.    8.52881     +0.29348940     -0.27486636             
P   8.99                                                                        
From 94 observations 2002 Apr. 1-2020 Apr. 1, mean residual 0".9.               
     Nongravitational parameters Y1 = +0.03, Y2 = -0.0017, Y3 = -0.0902.        
                                                                                
Ephemeris:
Date    TT    R. A. (2000) Decl.     Delta      r    Elong.  Phase   m1
2020 03 07    12 30 00.1 +10 37 55   1.8537  2.8055   159.7     7.1  20.3
...
2020 03 22    12 21 14.0 +11 53 22   1.8476  2.8272   166.9     4.6  20.3
...
2020 03 30    12 16 12.8 +12 23 18   1.8690  2.8399   163.2     5.8  20.4
...
2020 04 05    12 12 38.6 +12 39 01   1.8962  2.8499   158.3     7.5  20.4
2020 04 06    12 12 04.7 +12 41 02   1.9016  2.8516   157.4     7.7  20.4
2020 04 07    12 11 31.4 +12 42 51   1.9072  2.8533   156.5     8.0  20.5
...
2020 04 13    12 08 26.9 +12 49 58   1.9462  2.8638   150.8     9.8  20.5
...
2020 04 21    12 05 10.3 +12 49 04   2.0109  2.8785   143.1    12.1  20.6
...
2020 05 06    12 02 12.3 +12 16 38   2.1660  2.9079   128.9    15.7  20.8

(MPEC 2020-G64、CBET 4742)

スレッド表示 | 新しいものから 前のトピック | 次のトピック | トップ

投稿するにはまず登録を
 
© 1999 Tsutomu Seki.